Regional Weather Roundup
Issued by NWS

Home | Current Version | Previous Version | Graphics & Text | Print | Product List | Glossary Off
Versions: 1 2 3 4 5 6 7 8 9 10 11 12 13 14 15 16 17 18 19 20 21 22 23 24 25 26 27 28 29 30 31 32 33 34 35 36 37 38 39 40 41 42 43 44 45 46 47 48 49

000
ASUS43 KDMX 151607
RWRIA

WEATHER ROUNDUP FOR IOWA
NATIONAL WEATHER SERVICE DES MOINES IA
1100 AM CDT MON SEP 15 2014

NOTE: "FAIR" INDICATES FEW OR NO CLOUDS BELOW 12,000 FEET WITH NO
SIGNIFICANT WEATHER AND/OR OBSTRUCTIONS TO VISIBILITY.

* - THESE STATIONS ARE NOT NWS STATIONS...THUS NOT UNDER NWS
QUALITY CONTROL.  THEY ALSO DO NOT REPORT WEATHER SUCH
AS PRECIPITATION OR FOG.

IAZ001>003-012>014-020>022-031>034-043>046-151700-
   NORTHWEST IOWA

CITY           SKY/WX    TMP DP  RH WIND       PRES   REMARKS
CARROLL *      PTSUNNY   55  48  76 NE17      30.18F
CHEROKEE *     CLOUDY    54  48  82 N12       30.24R
DENISON *      SUNNY     57  48  72 NE14      30.18S
LE MARS *      PTSUNNY   55  48  76 N9G16     30.26R
ORANGE CITY *  PTSUNNY   55  46  71 N12       30.25S
SHELDON *      CLOUDY    54  46  76 N8        30.24R
SIOUX CITY     CLOUDY    57  47  69 N15G24    30.25R
SPENCER        CLOUDY    54  46  74 N13       30.24R
STORM LAKE *   CLOUDY    54  50  87 N14       30.22R
$$

IAZ055>058-069>071-079>083-090>094-151700-
   SOUTHWEST IOWA

CITY           SKY/WX    TMP DP  RH WIND       PRES   REMARKS
ATLANTIC *     CLOUDY    54  50  87 NE14G20   30.17R
AUDUBON *      PTSUNNY   54  52  94 N15G21    30.19S
CLARINDA *     CLOUDY    57  55  94 N14G25    30.16R
COUNCIL BLFS * CLOUDY    55  54  94 N16G23    30.17S
CRESTON *      CLOUDY    54  54 100 N21G26    30.14R
HARLAN  *      CLOUDY    54  50  87 NE15      30.21S
LAMONI         CLOUDY    60  57  89 N3        30.10R
SHENANDOAH *   CLOUDY    55  54  94 N14       30.16R
$$

IAZ047>049-059>061-072>074-084-151700-
   CENTRAL IOWA

CITY           SKY/WX    TMP DP  RH WIND       PRES   REMARKS
AMES           CLOUDY    54  48  80 N21G30    30.16R
ANKENY *       CLOUDY    57  52  82 N16       30.13R
CHARITON *     CLOUDY    61  59  94 NW6       30.10R
DES MOINES     CLOUDY    58  52  80 N17       30.12R
GRINNELL*      CLOUDY    61  55  82 NW10      30.11R
KNOXVILLE *    CLOUDY    61  57  88 N6        30.09R
MARSHALLTOWN   CLOUDY    55  49  80 N18G26    30.15R
PELLA *        CLOUDY    63  59  88 NW3       30.11R
PERRY *        CLOUDY    54  48  82 N18G24    30.17R
$$

IAZ004>006-015-016-023>025-035-036-151700-
   NORTH CENTRAL IOWA

CITY           SKY/WX    TMP DP  RH WIND       PRES   REMARKS
ALGONA *       CLOUDY    52  48  87 N12G17    30.22R
CLARION *        N/A     54  48  82 NE14      30.18S
ESTHERVILLE    CLOUDY    54  47  77 N12       30.23R
FORT DODGE *   PTSUNNY   54  48  82 N10       30.19S
MASON CITY     PTSUNNY   54  49  83 N13       30.20S
FOREST CITY *  CLOUDY    52  50  93 N12G17    30.20R
IOWA FALLS *   DRIZZLE   50  48  93 N13G18    30.18S
$$

IAZ007>011-017>019-026>030-037>042-050>054-066-151700-
   NORTHEAST IOWA

CITY           SKY/WX    TMP DP  RH WIND       PRES   REMARKS
CEDAR RAPIDS   PTSUNNY   63  56  78 NW6       30.09R
CHARLES CITY * PTSUNNY   52  50  93 NE10      30.18F
CLINTON *      PTSUNNY   61  54  77 SE6       30.12S
DECORAH *      LGT RAIN  50  48  93 N9        30.17R
DUBUQUE        CLOUDY    57  51  80 N7        30.11F
MONTICELLO *   CLOUDY    61  54  77 MISG      30.11R
OELWEIN *      LGT RAIN  50  48  93 N15G23    30.17R
WATERLOO       LGT RAIN  51  48  89 N16       30.16R FOG
$$

IAZ064-065-067-068-078-151700-
   EAST CENTRAL IOWA

CITY           SKY/WX    TMP DP  RH WIND       PRES   REMARKS
DAVENPORT      PTSUNNY   59  52  77 SE6       30.10R
IOWA CITY      CLOUDY    61  57  87 S6        30.10R
MT. PLEASANT * CLOUDY    59  57  94 CALM      30.08F
MUSCATINE *      N/A     57  54  88 S6        30.09S
QUAD CITIES    CLOUDY    57  53  86 SE5       30.09S
$$

IAZ062-063-075>077-085>089-095>099-151700-
   SOUTHEAST IOWA

CITY           SKY/WX    TMP DP  RH WIND       PRES   REMARKS
BURLINGTON     CLOUDY    56  56 100 NE6       30.07F
FAIRFIELD *    PTSUNNY   57  55  94 CALM      30.08F
FORT MADISON * CLOUDY    57  57 100 NE3       30.08F
KEOKUK *       CLOUDY    57  57 100 NE5       30.07R
OSKALOOSA *    CLOUDY    61  59  94 CALM      30.09F
CENTERVILLE *  CLOUDY    57  57 100 N3        30.11R
OTTUMWA        CLOUDY    60  57  89 CALM      30.08S
WASHINGTON *   CLOUDY    57  57 100 CALM      30.09R
$$

ABBREVIATIONS USED IN REMARKS
   TC - TEMPERATURES IN CELSIUS
  WCI - WIND CHILL INDEX
   HX - HEAT INDEX
  VSB - VISIBILITY
$$



USA.gov is the U.S. government's official web portal to all federal, state and local government web resources and services.